Weather in Targu Secuisc

Romania     45°50′40″N   26°10′07″E
temp.,
°C
wind,
m/s
gust,
m/s
humid.,
%
clouds,
%
prec.,
mm/h
press.,
hPa
HPBL,
m
27 february, sat
sat2723:00+4sse11670 0.0 102222
02:00+3sse00710 0.0 102222
05:00+2sw01800 0.0 102022
08:00+3nnw11790 0.0 102122
11:00+8w36631 0.0 1021785
14:00+7wnw697350 0.0 10221013
17:00+2nw51098100 1.9 1023674
20:000nnw3798100 6.4 1025406
28 february, sun
sun2823:00−1nw3796100 1.4 1027530
02:00−2nw479897 2.0 1028616
05:00−3nw3697100 0.9 1029603
08:00−3wnw4897100 1.4 1030601
11:00−3wnw4792100 0.5 1029653
14:00−2wnw4791100 0.7 1029696
17:00−1wnw4886100 0.1 1028804
20:00−2wnw499098 0.2 1029787
1 march, mon
mon123:00−4w279498 0.1 1029488
02:00−3w4119695 0.1 1029710
05:00−3wnw3997100 3.6 1028585
08:00−3nw2696100 7.1 1029475
11:00−1nw3494100 1.1 1030417
14:000nw3495100 2.5 1031490
17:00−1wnw3698100 0.9 1031480
20:00−2nw3799100 2.1 1033406
2 march, tue
tue223:00−2nw2499100 1.1 1034221
02:00−3nw1199100 1.5 103549
05:00−4nw129897 0.1 1034157
08:00−3wnw139898 0.1 1034206
11:00−1wnw2493100 0.0 1033455
14:000wnw2394100 0.1 1032429
17:00+1wnw2492100 0.0 1030398
20:00−3wnw119289 0.0 103131
3 march, wed
wed323:00−3wnw11920 0.0 103223
02:00−4sw01920 0.0 103222
05:00−4sw119525 0.0 103223
08:00−1w139355 0.0 1032253
11:00+2w129098 0.0 1031336
14:00+5w228060 0.0 1030397
17:00+3wsw11870 0.0 102931
20:00−1se11870 0.0 102922